Home   Weather   Tallinn   Past weeks
Flag for Estonia

Past Weather in Tallinn, Estonia — Yesterday and Last 2 Weeks

Now
34 °F

Passing clouds.


Feels Like: 23 °F
Forecast: 36 / 25 °F
Wind: 16 mph from West

Location: Tallinn

Current Time: Mar 29, 2020 at 7:36:14 pm

Latest Report: Mar 29, 2020 at 6:50 pm


Visibility: N/A

Pressure: 30.09 "Hg

Humidity: 48%

Dew Point: 16 °F

Location of TallinnLocation

Past Weather in Tallinn — Graph

°F

Tallinn Temperature Yesterday

Maximum temperature yesterday: 52 °F (at 11:50 am)
Minimum temperature yesterday: 32 °F (at 12:50 am)
Average temperature yesterday: 41 °F

High & Low Weather Summary for the Past Weeks

 TemperatureHumidityPressure
High54 °F (Mar 26, 12:50 pm)100% (Mar 16, 2:50 pm)30.74 "Hg (Mar 16, 2:50 pm)
Low19 °F (Mar 23, 6:50 am)19% (Mar 26, 4:20 pm)29.59 "Hg (Mar 18, 5:20 pm)
Average36 °F64%30.21 "Hg
* Reported Mar 14 5:20 pm — Mar 29 6:20 pm, Tallinn. Weather by CustomWeather, © 2020

Note: Actual official high and low records may vary slightly from our data, if they occured in-between our weather recording intervals... More about our weather records

Tallinn Weather History for the Previous 24 Hours

Scroll right to see more
 ConditionsComfort  
Time TempWeatherWind HumidityBarometerVisibility
6:20 pm
Sun, Mar 29
34 °FPassing clouds.15 mph35%30.09 "HgN/A
5:50 pm36 °FPassing clouds.12 mph30%30.09 "HgN/A
5:20 pm36 °FPassing clouds.9 mph27%30.12 "HgN/A
4:50 pm36 °FPassing clouds.9 mph25%30.12 "HgN/A
4:20 pm36 °FPassing clouds.12 mph27%30.12 "HgN/A
3:50 pm36 °FPassing clouds.12 mph30%30.15 "HgN/A
3:20 pm36 °FPassing clouds.12 mph32%30.15 "HgN/A
2:50 pm34 °FSunny.13 mph35%30.15 "Hg10 mi
2:20 pm34 °FPassing clouds.13 mph38%30.15 "HgN/A
1:50 pm34 °FSunny.13 mph35%30.15 "Hg10 mi
1:20 pm34 °FPassing clouds.12 mph38%30.18 "HgN/A
12:50 pm34 °FPassing clouds.13 mph41%30.18 "HgN/A
12:20 pm34 °FPassing clouds.9 mph38%30.18 "HgN/A
11:50 am34 °FPassing clouds.10 mph38%30.18 "HgN/A
11:20 am34 °FPassing clouds.12 mph35%30.18 "HgN/A
10:50 am34 °FPassing clouds.10 mph35%30.18 "HgN/A
10:20 am32 °FPassing clouds.12 mph37%30.18 "HgN/A
9:50 am32 °FPassing clouds.12 mph44%30.18 "HgN/A
9:20 am32 °FPassing clouds.9 mph47%30.18 "HgN/A
8:50 am32 °FPassing clouds.9 mph51%30.15 "HgN/A
8:20 am32 °FPassing clouds.8 mph51%30.15 "HgN/A
7:50 am30 °FPassing clouds.8 mph51%30.15 "HgN/A
7:20 am32 °FPassing clouds.9 mph47%30.15 "HgN/A
6:50 am32 °FClear.8 mph47%30.15 "Hg10 mi
6:20 am32 °FPassing clouds.9 mph44%30.15 "HgN/A
5:20 am34 °FPassing clouds.9 mph44%30.12 "HgN/A
4:50 am34 °FPassing clouds.10 mph41%30.12 "HgN/A
4:20 am36 °FPassing clouds.8 mph41%30.12 "HgN/A
2:50 am36 °FPassing clouds.9 mph35%30.12 "HgN/A
2:20 am36 °FPassing clouds.10 mph41%30.09 "HgN/A
1:50 am37 °FPassing clouds.10 mph45%30.09 "HgN/A
1:20 am37 °FPassing clouds.10 mph45%30.09 "HgN/A
12:50 am37 °FPassing clouds.9 mph45%30.09 "HgN/A
12:20 am37 °FPassing clouds.10 mph45%30.09 "HgN/A
11:50 pm
Sat, Mar 28
39 °FPassing clouds.9 mph48%30.07 "HgN/A
11:20 pm39 °FPassing clouds.9 mph48%30.07 "HgN/A
10:50 pm39 °FPassing clouds.8 mph48%30.07 "HgN/A
10:20 pm41 °FPassing clouds.10 mph42%30.04 "HgN/A
9:50 pm41 °FPassing clouds.13 mph39%30.04 "HgN/A
9:20 pm41 °FPassing clouds.12 mph45%30.04 "HgN/A
8:50 pm43 °FClear.13 mph42%30.04 "Hg10 mi
8:20 pm43 °FPassing clouds.10 mph49%30.01 "HgN/A
7:20 pm41 °FClear.8 mph70%30.01 "Hg10 mi
Weather by CustomWeather, © 2020

See weather overview

Advertising